Home   Weather   Antananarivo   Past weeks

Flag for Madagascar Past Weather in Antananarivo, Madagascar — Yesterday and Last 2 Weeks

Now
64 °F

Scattered clouds.


Feels Like: 64 °F
Forecast: 58 / 82 °F
Wind: No wind

Location: Antananarivo / Ivato

Current Time: Jan 22, 2017 at 7:15:08 am

Latest Report: Jan 22, 2017 at 6:00 am


Visibility: N/A

Pressure: 30.18 "Hg (25.95 "Hg at 1287m altitude)

Humidity: 83%

Dew Point: 59 °F

Location of AntananarivoLocation

Past Weather in Antananarivo — Graph

°F

Antananarivo Temperature Yesterday

Maximum temperature yesterday: 79 °F (at 3:30 pm)
Minimum temperature yesterday: 59 °F (at 4:00 am)
Average temperature yesterday: 69 °F

High & Low Weather Summary for the Past Weeks

 TemperatureHumidityPressure
High84 °F (Jan 9, 1:30 pm)100% (Jan 9, 2:30 am)30.21 "Hg (Jan 9, 2:30 am)
Low55 °F (Jan 20, 4:00 am)35% (Jan 11, 3:00 pm)29.92 "Hg (Jan 8, 4:00 pm)
Average70 °F71%30.10 "Hg
* Reported Jan 7 6:00 am — Jan 22 6:00 am, Antananarivo, Weather by CustomWeather, © 2017

Note: Actual official high and low records may vary slightly from our data, if they occured in-between our weather recording intervals... More about our weather records

Advertising

Antananarivo Weather History for the Previous 24 Hours

Scroll right to see more
 ConditionsComfort  
Time TempWeatherWind HumidityBarometerVisibility
6:00 am
Sun, Jan 22
61 °FScattered clouds.No wind88%30.18 "HgN/A
5:30 am61 °FScattered clouds.No wind88%30.15 "HgN/A
5:00 am61 °FPassing clouds.No wind94%30.15 "HgN/A
4:30 am61 °FPassing clouds.No wind88%30.12 "HgN/A
4:00 am61 °FPassing clouds.No wind94%30.12 "HgN/A
3:30 am63 °FPassing clouds.No wind83%30.12 "HgN/A
3:00 am63 °FPassing clouds.3 mph83%30.12 "HgN/A
2:30 am61 °FPassing clouds.No wind88%30.15 "HgN/A
2:00 am61 °FPassing clouds.No wind88%30.15 "HgN/A
1:30 am61 °FPassing clouds.No wind94%30.18 "HgN/A
1:00 am61 °FPassing clouds.No wind94%30.18 "HgN/A
12:30 am61 °FPassing clouds.No wind88%30.18 "HgN/A
12:00 am63 °FPassing clouds.7 mph88%30.18 "HgN/A
11:30 pm
Sat, Jan 21
63 °FThundershowers. Passing clouds.7 mph83%30.18 "HgN/A
11:00 pm64 °FThundershowers. Passing clouds.10 mph83%30.18 "HgN/A
10:30 pm64 °FThundershowers. Passing clouds.9 mph88%30.18 "HgN/A
10:00 pm66 °FThundershowers. Passing clouds.10 mph83%30.18 "HgN/A
9:30 pm66 °FThundershowers. Passing clouds.8 mph83%30.18 "HgN/A
9:00 pm66 °FThundershowers. Passing clouds.9 mph83%30.18 "HgN/A
8:30 pm68 °FThundershowers. Passing clouds.9 mph73%30.18 "HgN/A
8:00 pm68 °FThundershowers. Passing clouds.7 mph69%30.15 "HgN/A
7:30 pm70 °FThundershowers. Passing clouds.5 mph64%30.15 "HgN/A
7:00 pm72 °FThundershowers. Passing clouds.12 mph61%30.12 "HgN/A
6:30 pm72 °FPassing clouds.14 mph61%30.12 "HgN/A
6:00 pm75 °FPassing clouds.13 mph54%30.09 "HgN/A
5:30 pm75 °FPassing clouds.12 mph57%30.09 "HgN/A
5:00 pm77 °FScattered clouds.12 mph54%30.09 "HgN/A
4:30 pm77 °FPartly sunny.10 mph54%30.09 "HgN/A
4:00 pm77 °FPartly sunny.12 mph54%30.09 "HgN/A
3:30 pm79 °FBroken clouds.9 mph51%30.09 "HgN/A
3:00 pm77 °FBroken clouds.9 mph54%30.09 "HgN/A
2:30 pm77 °FBroken clouds.10 mph61%30.09 "HgN/A
2:00 pm75 °FBroken clouds.10 mph61%30.09 "HgN/A
1:30 pm75 °FBroken clouds.5 mph61%30.09 "HgN/A
1:00 pm77 °FBroken clouds.3 mph61%30.12 "HgN/A
12:30 pm77 °FScattered clouds.6 mph61%30.12 "HgN/A
12:00 pm77 °FPartly sunny.7 mph61%30.12 "HgN/A
11:30 am75 °FScattered clouds.7 mph69%30.15 "HgN/A
11:00 am68 °FBroken clouds.10 mph83%30.15 "HgN/A
10:30 am72 °FBroken clouds.14 mph69%30.18 "HgN/A
10:00 am72 °FBroken clouds.9 mph69%30.18 "HgN/A
9:30 am72 °FBroken clouds.6 mph69%30.18 "HgN/A
9:00 am72 °FPartly sunny.No wind69%30.18 "HgN/A
8:30 am72 °FScattered clouds.No wind65%30.18 "HgN/A
8:00 am70 °FPassing clouds.No wind69%30.18 "HgN/A
7:30 am68 °FPassing clouds.No wind73%30.18 "HgN/A
7:00 am68 °FPassing clouds.No wind78%30.18 "HgN/A
Weather by CustomWeather, © 2017

See weather overviewHow to use our weather pages